1513911600.79,3131,7.44,73502.3,-12.19,-12.53,-12.61,0,*5A
1513911602.07,3132,7.44,73482.0,-12.19,-12.61,-12.61,0,*58
1513911603.35,3133,7.44,73494.5,-12.19,-12.61,-12.61,0,*59
1513911604.64,3134,7.44,73546.5,-12.19,-12.65,-12.53,0,*5B
1513911605.84,3135,7.44,73534.3,-12.13,-12.43,-12.43,0,*55
1513911607.08,3136,7.44,73532.5,-12.13,-12.53,-12.43,0,*57
1513911608.32,3137,7.44,73538.0,-12.13,-12.53,-12.43,0,*56
1513911609.52,3138,7.44,73512.5,-12.13,-12.43,-12.39,0,*55
1513911610.73,3139,7.44,73522.8,-12.13,-12.39,-12.39,0,*59
1513911611.93,3140,7.44,73530.5,-12.13,-12.43,-12.43,0,*57
1513911613.14,3141,7.44,73518.0,-12.17,-12.47,-12.43,0,*56
1513911614.36,3142,7.44,73550.8,-12.13,-12.29,-12.29,0,*55
1513911615.62,3143,7.44,73546.3,-12.17,-12.35,-12.35,0,*50
1513911616.88,3144,7.44,73546.5,-12.17,-12.35,-12.35,0,*57
1513911618.09,3145,7.44,73516.0,-12.13,-12.39,-12.39,0,*52
1513911619.29,3146,7.44,73526.8,-12.13,-12.43,-12.39,0,*5C
1513911620.5,3147,7.44,73524.0,-12.13,-12.43,-12.43,0,*50
1513911621.71,3148,7.44,73522.8,-12.13,-12.39,-12.43,0,*52
1513911622.91,3149,7.44,73528.0,-12.13,-12.43,-12.39,0,*53
1513911624.12,3150,7.44,73540.0,-12.13,-12.43,-12.43,0,*56
1513911625.35,3151,7.44,73522.3,-12.13,-12.43,-12.53,0,*56
1513911626.61,3152,7.44,73520.5,-12.13,-12.53,-12.53,0,*54
1513911627.9,3153,7.44,73532.5,-12.11,-12.53,-12.53,0,*57
1513911629.16,3154,7.44,73504.8,-12.09,-12.53,-12.53,0,*59
1513911630.37,3155,7.44,73528.8,-12.09,-12.39,-12.39,0,*58
1513911631.6,3156,7.44,73524.3,-12.11,-12.25,-12.25,0,*52
1513911632.81,3157,7.44,73536.5,-12.09,-12.25,-12.25,0,*5A
1513911634.02,3158,7.44,73528.3,-12.09,-12.25,-12.25,0,*55
1513911635.26,3159,7.44,73532.3,-12.07,-12.21,-12.21,0,*5A
1513911636.51,3160,7.44,73540.3,-12.07,-12.21,-12.21,0,*50
1513911637.72,3161,7.44,73550.3,-12.05,-12.25,-12.21,0,*57
1513911638.97,3162,7.44,73540.5,-12.07,-12.21,-12.21,0,*52
1513911640.21,3163,7.44,73550.3,-12.07,-12.21,-12.21,0,*53
1513911641.43,3164,7.44,73546.3,-12.05,-12.21,-12.21,0,*56
1513911642.67,3165,7.44,73540.8,-12.05,-12.11,-12.21,0,*54
1513911643.88,3166,7.44,73528.3,-12.05,-12.03,-12.03,0,*54
1513911645.12,3167,7.44,73508.8,-12.05,-12.07,-12.03,0,*51
1513911646.36,3168,7.44,73486.5,-12.05,-12.07,-12.03,0,*5E
1513911647.64,3169,7.44,73504.3,-12.07,-12.11,-12.11,0,*59
1513911648.91,3170,7.44,73516.3,-12.07,-12.11,-12.21,0,*52
1513911650.12,3171,7.44,73500.3,-12.05,-12.03,-12.03,0,*52
1513911651.33,3172,7.44,73506.8,-12.05,-12.03,-12.03,0,*51
1513911652.54,3173,7.44,73508.5,-11.99,-12.03,-12.03,0,*56
1513911653.77,3174,7.44,73526.0,-11.99,-12.03,-12.07,0,*55
1513911655.04,3175,7.44,73546.3,-11.99,-12.07,-12.07,0,*50
1513911656.3,3176,7.44,73548.5,-11.99,-12.15,-12.07,0,*50
1513911657.55,3177,7.44,73550.0,-12.01,-12.21,-12.21,0,*50
1513911658.77,3178,7.44,73552.5,-11.99,-12.21,-12.21,0,*5D
1513911659.99,3179,7.44,73530.8,-11.99,-12.29,-12.21,0,*54
1513911661.2,3180,7.44,73514.0,-11.99,-12.29,-12.29,0,*5A
1513911662.44,3181,7.44,73512.8,-11.99,-12.21,-12.15,0,*5C
1513911663.7,3182,7.44,73524.8,-11.99,-12.15,-12.15,0,*58
1513911664.95,3183,7.44,73528.5,-12.01,-12.21,-12.21,0,*5B
1513911666.17,3184,7.44,73522.3,-11.99,-12.25,-12.29,0,*52
1513911667.39,3185,7.44,73516.8,-11.99,-12.29,-12.29,0,*5F
1513911668.6,3186,7.44,73512.0,-11.99,-12.29,-12.25,0,*50
1513911669.81,3187,7.44,73498.3,-11.99,-12.25,-12.29,0,*51
1513911671.03,3188,7.44,73510.8,-11.99,-12.25,-12.29,0,*5E
1513911672.3,3189,7.44,73492.8,-11.99,-12.11,-12.11,0,*53
1513911673.58,3190,7.44,73498.0,-11.97,-12.11,-12.15,0,*51
1513911674.87,3191,7.44,73506.0,-11.97,-12.11,-12.11,0,*54
1513911676.13,3192,7.44,73520.8,-11.99,-12.11,-12.11,0,*59
1513911677.42,3193,7.44,73526.3,-11.97,-12.11,-12.11,0,*56
1513911678.71,3194,7.44,73530.0,-11.97,-12.15,-12.15,0,*51
1513911679.99,3195,7.44,73532.3,-11.97,-12.11,-12.15,0,*54
1513911681.28,3196,7.44,73520.8,-11.97,-12.15,-12.15,0,*53
1513911682.57,3197,7.44,73512.3,-11.97,-12.15,-12.15,0,*52
1513911683.83,3198,7.44,73486.0,-11.95,-12.07,-12.07,0,*5F
1513911685.1,3199,7.44,73520.8,-11.95,-12.07,-12.07,0,*5E
1513911686.36,3200,7.44,73502.0,-11.91,-12.07,-12.07,0,*59
1513911687.63,3201,7.44,73500.5,-11.95,-12.11,-11.97,0,*51
1513911688.89,3202,7.44,73498.5,-11.95,-12.07,-11.97,0,*55
1513911690.16,3203,7.44,73500.0,-11.95,-11.97,-11.97,0,*5E
1513911691.42,3204,7.44,73534.3,-11.91,-12.11,-12.07,0,*5A
1513911692.69,3205,7.44,73506.0,-11.91,-12.07,-12.07,0,*5C
1513911693.95,3206,7.44,73484.0,-11.91,-11.77,-11.77,0,*5F
1513911695.23,3207,7.44,73502.5,-11.89,-11.73,-11.73,0,*57
1513911696.51,3208,7.44,73520.3,-11.89,-11.77,-11.77,0,*58
1513911697.8,3209,7.44,73508.5,-11.89,-11.77,-11.77,0,*59
1513911699.06,3210,7.44,73514.8,-11.87,-11.89,-11.85,0,*53
1513911700.33,3211,7.44,73512.5,-11.87,-11.89,-11.93,0,*55
1513911701.61,3212,7.44,73516.0,-11.87,-11.93,-11.93,0,*5D
1513911702.88,3213,7.44,73510.5,-11.87,-12.07,-11.93,0,*52
1513911704.1,3214,7.44,73526.0,-11.87,-12.03,-12.03,0,*5B
1513911705.34,3215,7.44,73516.3,-11.87,-12.07,-12.03,0,*5E
1513911706.61,3216,7.44,73516.8,-11.87,-12.07,-12.07,0,*59
1513911707.88,3217,7.44,73514.0,-11.87,-12.07,-12.07,0,*58
1513911709.13,3218,7.44,73514.0,-11.87,-12.21,-12.07,0,*53
1513911710.42,3219,7.44,73524.8,-11.85,-12.11,-12.11,0,*54
1513911711.66,3220,7.44,73526.0,-11.89,-12.21,-12.21,0,*52
1513911712.93,3221,7.44,73530.8,-11.87,-12.15,-12.15,0,*5D
1513911714.18,3222,7.44,73530.5,-11.87,-12.35,-12.21,0,*5B
1513911715.4,3223,7.44,73524.3,-11.87,-12.29,-12.29,0,*5F
1513911716.62,3224,7.44,73536.5,-11.87,-12.29,-12.29,0,*58
1513911717.89,3225,7.44,73528.8,-11.85,-12.25,-12.35,0,*5A
1513911719.13,3226,7.44,73524.3,-11.85,-12.29,-12.25,0,*54
1513911720.37,3227,7.44,73528.3,-11.85,-12.29,-12.29,0,*59
1513911721.61,3228,7.44,73532.3,-11.85,-12.39,-12.29,0,*57
1513911722.85,3229,7.44,73526.0,-11.87,-12.43,-12.35,0,*54
1513911724.09,3230,7.44,73518.8,-11.85,-12.39,-12.29,0,*5E
1513911725.33,3231,7.44,73518.5,-11.85,-12.39,-12.29,0,*5F
1513911726.57,3232,7.44,73526.0,-11.85,-12.39,-12.43,0,*50
1513911727.8,3233,7.44,73512.3,-11.85,-12.39,-12.39,0,*5C
1513911729.04,3234,7.44,73518.8,-11.85,-12.39,-12.29,0,*5A
1513911730.25,3235,7.44,73508.5,-11.83,-12.39,-12.29,0,*5D
1513911731.49,3236,7.44,73520.3,-11.85,-12.29,-12.39,0,*58
1513911732.73,3237,7.44,73548.3,-11.85,-12.39,-12.39,0,*58
1513911733.96,3238,7.44,73540.8,-11.85,-12.39,-12.39,0,*57
1513911735.21,3239,7.44,73540.3,-11.85,-12.29,-12.29,0,*56
1513911736.42,3240,7.44,73510.0,-11.83,-12.39,-12.29,0,*5F
1513911737.66,3241,7.44,73496.8,-11.85,-12.39,-12.29,0,*58
1513911738.9,3242,7.44,73472.3,-11.85,-12.39,-12.29,0,*5B
1513911740.11,3243,7.44,73516.5,-11.87,-12.43,-12.43,0,*59
1513911741.35,3244,7.38,73516.0,-11.85,-12.39,-12.39,0,*5C
1513911742.58,3245,7.44,73508.0,-11.85,-12.39,-12.39,0,*5D
1513911743.83,3246,7.44,73508.8,-11.85,-12.29,-12.29,0,*5E
1513911745.07,3247,7.44,73508.0,-11.85,-12.29,-12.29,0,*5F
1513911746.29,3248,7.44,73516.5,-11.83,-12.29,-12.25,0,*5A
1513911747.53,3249,7.38,73508.8,-11.83,-12.15,-12.25,0,*54
1513911748.77,3250,7.44,73504.8,-11.85,-12.29,-12.25,0,*55
1513911749.98,3251,7.38,73508.0,-11.83,-12.25,-12.25,0,*5E
1513911751.2,3252,7.44,73510.0,-11.83,-12.29,-12.25,0,*51
1513911752.44,3253,7.44,73500.0,-11.85,-12.29,-12.29,0,*5A
1513911753.66,3254,7.44,73502.3,-11.83,-12.29,-12.25,0,*57
1513911754.88,3255,7.44,73496.8,-11.83,-12.29,-12.29,0,*5A
1513911756.12,3256,7.38,73504.5,-11.85,-12.25,-12.29,0,*53
1513911757.36,3257,7.44,73512.0,-11.85,-12.29,-12.29,0,*5E
1513911758.61,3258,7.44,73500.5,-11.85,-12.29,-12.29,0,*51
1513911759.83,3259,7.38,73490.0,-11.83,-12.29,-12.29,0,*56
1513911761.04,3260,7.38,73490.5,-11.83,-12.29,-12.25,0,*50
1513911762.31,3261,7.44,73496.3,-11.83,-12.15,-12.15,0,*5D
1513911763.52,3262,7.44,73504.5,-11.83,-12.25,-12.25,0,*5E
1513911764.74,3263,7.44,73520.8,-11.83,-12.29,-12.29,0,*5F
1513911765.96,3264,7.44,73512.8,-11.83,-12.29,-12.29,0,*58
1513911767.18,3265,7.44,73516.5,-11.83,-12.29,-12.29,0,*59
1513911768.4,3266,7.44,73522.5,-11.83,-12.25,-12.29,0,*56
1513911769.62,3267,7.44,73512.8,-11.83,-12.29,-12.29,0,*5B
1513911770.84,3268,7.38,73508.0,-11.83,-12.29,-12.29,0,*54
1513911772.05,3269,7.44,73514.3,-11.83,-12.39,-12.39,0,*55
1513911773.26,3270,7.44,73518.8,-11.83,-12.43,-12.39,0,*50
1513911774.53,3271,7.44,73520.5,-11.81,-12.39,-12.35,0,*52
1513911775.76,3272,7.44,73526.3,-11.85,-12.39,-12.39,0,*59
1513911776.98,3273,7.44,73512.3,-11.83,-12.39,-12.39,0,*5E
1513911778.2,3274,7.44,73512.5,-11.83,-12.29,-12.43,0,*55
1513911779.41,3275,7.44,73520.0,-11.83,-12.39,-12.39,0,*58
1513911780.62,3276,7.44,73518.8,-11.83,-12.43,-12.43,0,*5B
1513911781.89,3277,7.44,73518.5,-11.81,-12.35,-12.39,0,*54
1513911783.1,3278,7.44,73536.3,-11.83,-12.39,-12.43,0,*58
1513911784.39,3279,7.44,73522.0,-11.81,-12.35,-12.35,0,*56
1513911785.63,3280,7.44,73524.0,-11.83,-12.53,-12.39,0,*5E
1513911786.85,3281,7.38,73522.5,-11.83,-12.39,-12.39,0,*53
1513911788.06,3282,7.44,73526.0,-11.83,-12.39,-12.43,0,*5D
1513911789.27,3283,7.44,73536.8,-11.83,-12.43,-12.43,0,*51
1513911790.51,3284,7.44,73516.8,-11.81,-12.47,-12.39,0,*5D
1513911791.72,3285,7.38,73516.8,-11.79,-12.39,-12.39,0,*52
1513911792.96,3286,7.44,73520.5,-11.81,-12.47,-12.47,0,*56
1513911794.23,3287,7.44,73528.8,-11.81,-12.53,-12.47,0,*52
1513911795.49,3288,7.44,73518.5,-11.83,-12.57,-12.57,0,*5A
1513911796.76,3289,7.38,73514.3,-11.83,-12.53,-12.53,0,*5B
1513911798.02,3290,7.44,73516.0,-11.83,-12.57,-12.57,0,*53
1513911799.32,3291,7.44,73520.3,-11.81,-12.53,-12.53,0,*50
1513911800.53,3292,7.44,73536.5,-11.79,-12.47,-12.47,0,*54
1513911801.77,3293,7.44,73528.3,-11.81,-12.47,-12.47,0,*52
1513911803.01,3294,7.38,73516.5,-11.81,-12.47,-12.47,0,*55
1513911804.28,3295,7.38,73520.3,-11.81,-12.53,-12.47,0,*51
1513911805.52,3296,7.38,73534.8,-11.81,-12.47,-12.47,0,*57
1513911806.76,3297,7.44,73528.3,-11.81,-12.47,-12.47,0,*56
1513911808.0,3298,7.44,73540.3,-11.81,-12.47,-12.39,0,*50
1513911809.24,3299,7.44,73538.5,-11.81,-12.47,-12.47,0,*58
1513911810.48,3300,7.44,73530.0,-11.81,-12.47,-12.47,0,*59
1513911811.72,3301,7.44,73524.5,-11.81,-12.47,-12.47,0,*58
1513911812.96,3302,7.44,73524.8,-11.81,-12.39,-12.47,0,*52
1513911814.22,3303,7.38,73528.0,-11.83,-12.53,-12.65,0,*5D
1513911815.49,3304,7.44,73528.5,-11.83,-12.57,-12.53,0,*5B
1513911816.78,3305,7.44,73528.5,-11.81,-12.53,-12.53,0,*5C
1513911818.02,3306,7.44,73528.5,-11.81,-12.47,-12.47,0,*5F
1513911819.29,3307,7.44,73538.0,-11.81,-12.47,-12.53,0,*5B
1513911820.56,3308,7.44,73534.5,-11.81,-12.53,-12.47,0,*54
1513911821.82,3309,7.44,73546.3,-11.79,-12.53,-12.61,0,*56
1513911823.09,3310,7.38,73530.0,-11.81,-12.53,-12.47,0,*5D
1513911824.39,3311,7.38,73526.3,-11.81,-12.53,-12.53,0,*59
1513911825.67,3312,7.38,73544.5,-11.81,-12.61,-12.53,0,*5B
1513911826.93,3313,7.44,73544.0,-11.83,-12.65,-12.65,0,*59
1513911828.2,3314,7.44,73540.3,-11.83,-12.65,-12.57,0,*5F
1513911829.47,3315,7.38,73514.0,-11.83,-12.71,-12.71,0,*5F
1513911830.72,3316,7.44,73550.8,-11.83,-12.65,-12.65,0,*5C
1513911831.99,3317,7.44,73538.0,-11.81,-12.53,-12.47,0,*5A
1513911833.29,3318,7.44,73528.8,-11.81,-12.53,-12.53,0,*50
1513911834.55,3319,7.44,73544.0,-11.81,-12.47,-12.53,0,*54
1513911835.8,3320,7.44,73532.8,-11.81,-12.47,-12.47,0,*5B
1513911837.01,3321,7.44,73532.5,-11.79,-12.47,-12.47,0,*5D
1513911838.25,3322,7.44,73536.5,-11.81,-12.47,-12.47,0,*59
1513911839.52,3323,7.44,73534.8,-11.81,-12.53,-12.47,0,*5D
1513911840.76,3324,7.44,73536.0,-11.81,-12.47,-12.47,0,*5F
1513911842.05,3325,7.44,73530.5,-11.81,-12.61,-12.53,0,*5F
1513911843.29,3326,7.44,73530.5,-11.81,-12.47,-12.47,0,*5D
1513911844.55,3327,7.44,73536.8,-11.81,-12.47,-12.53,0,*59
1513911845.82,3328,7.38,73516.5,-11.81,-12.47,-12.53,0,*56
1513911847.06,3329,7.44,73522.0,-11.81,-12.39,-12.47,0,*5B
1513911848.3,3330,7.44,73540.5,-11.81,-12.47,-12.47,0,*5A
1513911849.54,3331,7.44,73524.8,-11.81,-12.47,-12.47,0,*5B
1513911850.81,3332,7.44,73530.0,-11.81,-12.53,-12.47,0,*5D
1513911852.05,3333,7.44,73520.8,-11.81,-12.47,-12.39,0,*50
1513911853.28,3334,7.44,73532.3,-11.81,-12.39,-12.39,0,*5E
1513911854.52,3335,7.44,73518.8,-11.81,-12.39,-12.39,0,*5F
1513911855.79,3336,7.44,73522.5,-11.81,-12.35,-12.39,0,*50
1513911857.06,3337,7.44,73528.5,-11.81,-12.35,-12.39,0,*51
1513911858.29,3338,7.38,73526.3,-11.81,-12.39,-12.47,0,*5B
1513911859.53,3339,7.44,73534.3,-11.81,-12.47,-12.47,0,*53
1513911860.77,3340,7.44,73538.0,-11.81,-12.47,-12.47,0,*5D
1513911862.01,3341,7.44,73540.0,-11.81,-12.39,-12.47,0,*55
1513911863.25,3342,7.38,73528.3,-11.81,-12.47,-12.47,0,*5F
1513911864.46,3343,7.44,73522.3,-11.79,-12.39,-12.39,0,*59
1513911865.7,3344,7.38,73524.8,-11.81,-12.47,-12.39,0,*50
1513911866.94,3345,7.44,73516.5,-11.79,-12.39,-12.53,0,*53
1513911868.15,3346,7.38,73524.0,-11.79,-12.39,-12.47,0,*55
1513911869.39,3347,7.38,73508.8,-11.81,-12.39,-12.47,0,*53
1513911870.63,3348,7.44,73536.5,-11.79,-12.35,-12.47,0,*57
1513911871.85,3349,7.44,73518.5,-11.79,-12.47,-12.39,0,*5A
1513911873.08,3350,7.44,73524.8,-11.79,-12.39,-12.35,0,*57
1513911874.33,3351,7.44,73520.8,-11.81,-12.47,-12.39,0,*54
1513911875.56,3352,7.44,73526.5,-11.81,-12.47,-12.39,0,*57
1513911876.78,3353,7.38,73530.5,-11.79,-12.47,-12.39,0,*51
1513911877.99,3354,7.38,73536.3,-11.79,-12.47,-12.39,0,*56
1513911879.21,3355,7.38,73518.3,-11.79,-12.39,-12.39,0,*5E
1513911880.42,3356,7.44,73518.5,-11.79,-12.47,-12.39,0,*54
1513911881.69,3357,7.44,73522.0,-11.79,-12.53,-12.53,0,*5C
1513911882.96,3358,7.44,73518.8,-11.79,-12.53,-12.53,0,*53
1513911884.17,3359,7.44,73522.5,-11.79,-12.47,-12.47,0,*52
1513911885.41,3360,7.44,73532.0,-11.79,-12.47,-12.53,0,*5D
1513911886.63,3361,7.38,73526.8,-11.79,-12.47,-12.47,0,*59
1513911887.84,3362,7.44,73526.8,-11.79,-12.47,-12.47,0,*5A
1513911889.08,3363,7.44,73534.0,-11.79,-12.47,-12.53,0,*5E
1513911890.32,3364,7.38,73520.8,-11.79,-12.47,-12.53,0,*59
1513911891.56,3365,7.38,73522.5,-11.81,-12.39,-12.47,0,*53
1513911892.77,3366,7.44,73526.0,-11.79,-12.39,-12.47,0,*57
1513911893.98,3367,7.44,73528.8,-11.75,-12.43,-12.43,0,*53
1513911895.22,3368,7.44,73530.5,-11.81,-12.39,-12.39,0,*57
1513911896.43,3369,7.38,73524.3,-11.79,-12.47,-12.47,0,*51
1513911897.64,3370,7.38,73526.3,-11.79,-12.47,-12.47,0,*59
1513911898.91,3371,7.44,73530.5,-11.81,-12.53,-12.47,0,*5A
1513911900.13,3372,7.38,73528.0,-11.79,-12.47,-12.47,0,*5B
1513911901.34,3373,7.38,73520.5,-11.79,-12.47,-12.47,0,*5A
1513911902.55,3374,7.44,73524.3,-11.79,-12.47,-12.47,0,*5D
1513911903.79,3375,7.38,73522.8,-11.75,-12.43,-12.35,0,*51
1513911905.0,3376,7.44,73528.0,-11.79,-12.47,-12.39,0,*56
1513911906.22,3377,7.38,73526.3,-11.79,-12.39,-12.39,0,*5E
1513911907.42,3378,7.44,73532.5,-11.75,-12.39,-12.39,0,*5D
1513911908.67,3379,7.44,73532.8,-11.75,-12.29,-12.35,0,*51
1513911909.91,3380,7.38,73530.0,-11.75,-12.35,-12.29,0,*57
1513911911.14,3381,7.44,73532.8,-11.75,-12.35,-12.29,0,*56
1513911912.43,3382,7.38,73520.0,-11.73,-12.35,-12.35,0,*5E
1513911913.7,3383,7.38,73522.3,-11.75,-12.35,-12.35,0,*59
1513911914.96,3384,7.38,73520.0,-11.75,-12.35,-12.35,0,*5E
1513911916.18,3385,7.44,73524.8,-11.75,-12.29,-12.29,0,*5F
1513911917.42,3386,7.44,73522.8,-11.75,-12.29,-12.35,0,*51
1513911918.69,3387,7.44,73524.0,-11.75,-12.35,-12.35,0,*5D
1513911919.9,3388,7.44,73516.8,-11.75,-12.29,-12.29,0,*52
1513911921.19,3389,7.38,73526.8,-11.73,-12.35,-12.35,0,*55
1513911922.45,3390,7.38,73504.8,-11.73,-12.43,-12.35,0,*5C
1513911923.69,3391,7.38,73510.8,-11.75,-12.43,-12.35,0,*5B
1513911924.89,3392,7.44,73526.3,-11.75,-12.43,-12.43,0,*59
1513911926.18,3393,7.38,73524.3,-11.73,-12.35,-12.35,0,*5E
1513911927.44,3394,7.44,73526.0,-11.73,-12.43,-12.35,0,*58
1513911928.67,3395,7.44,73522.5,-11.73,-12.43,-12.43,0,*58
1513911929.9,3396,7.38,73528.0,-11.73,-12.43,-12.43,0,*5B
1513911931.14,3397,7.44,73532.3,-11.73,-12.47,-12.43,0,*5E
1513911932.35,3398,7.44,73526.5,-11.75,-12.47,-12.47,0,*53
1513911933.58,3399,7.44,73524.5,-11.73,-12.47,-12.43,0,*50
1513911934.79,3400,7.44,73528.0,-11.75,-12.43,-12.47,0,*51
1513911936.0,3401,7.44,73528.8,-11.75,-12.43,-12.47,0,*50
1513911937.21,3402,7.38,73532.8,-11.75,-12.47,-12.47,0,*57
1513911938.42,3403,7.38,73522.3,-11.75,-12.47,-12.47,0,*56
1513911939.65,3404,7.44,73522.5,-11.73,-12.43,-12.47,0,*53
1513911940.88,3405,7.44,73522.5,-11.73,-12.47,-12.47,0,*56
1513911942.09,3406,7.38,73514.0,-11.75,-12.47,-12.43,0,*57
1513911943.33,3407,7.38,73512.5,-11.73,-12.47,-12.47,0,*54
1513911944.56,3408,7.38,73508.0,-11.75,-12.61,-12.47,0,*59
1513911945.82,3409,7.38,73518.0,-11.73,-12.57,-12.47,0,*5B
1513911947.05,3410,7.44,73514.0,-11.75,-12.57,-12.47,0,*55
1513911948.31,3411,7.44,73512.8,-11.75,-12.57,-12.57,0,*55
1513911949.55,3412,7.38,73510.8,-11.75,-12.47,-12.57,0,*57
1513911950.76,3413,7.44,73522.5,-11.75,-12.47,-12.47,0,*57
1513911952.02,3414,7.38,73524.5,-11.73,-12.47,-12.57,0,*57
1513911953.22,3415,7.38,73516.5,-11.75,-12.43,-12.47,0,*55
1513911954.43,3416,7.38,73508.8,-11.75,-12.47,-12.47,0,*52
1513911955.65,3417,7.38,73510.8,-11.75,-12.47,-12.47,0,*53
1513911956.88,3418,7.44,73512.5,-11.75,-12.57,-12.47,0,*5D
1513911958.14,3419,7.44,73518.5,-11.73,-12.57,-12.47,0,*5A
1513911959.37,3420,7.38,73516.5,-11.75,-12.47,-12.57,0,*56
1513911960.58,3421,7.38,73506.8,-11.75,-12.47,-12.47,0,*56
1513911961.81,3422,7.38,73508.0,-11.73,-12.43,-12.43,0,*53
1513911963.02,3423,7.44,73506.3,-11.75,-12.43,-12.47,0,*50
1513911964.23,3424,7.44,73504.8,-11.75,-12.47,-12.43,0,*57
1513911965.44,3425,7.38,73514.0,-11.75,-12.47,-12.47,0,*52
1513911966.67,3426,7.44,73522.0,-11.73,-12.43,-12.43,0,*57
1513911967.91,3427,7.44,73522.8,-11.73,-12.43,-12.43,0,*56
1513911969.11,3428,7.44,73512.8,-11.75,-12.43,-12.43,0,*5F
1513911970.38,3429,7.44,73506.0,-11.73,-12.29,-12.35,0,*55
1513911971.64,3430,7.44,73512.0,-11.73,-12.35,-12.43,0,*51
1513911972.87,3431,7.44,73510.8,-11.75,-12.35,-12.43,0,*56
1513911974.08,3432,7.38,73504.8,-11.75,-12.43,-12.47,0,*50
1513911975.34,3433,7.44,73512.0,-11.73,-12.43,-12.35,0,*52
1513911976.57,3434,7.44,73502.3,-11.73,-12.43,-12.43,0,*54
1513911977.8,3435,7.38,73488.3,-11.73,-12.43,-12.43,0,*55
1513911979.04,3436,7.38,73504.5,-11.75,-12.43,-12.35,0,*51
1513911980.27,3437,7.38,73526.0,-11.73,-12.43,-12.43,0,*57
1513911981.5,3438,7.44,73528.3,-11.73,-12.43,-12.43,0,*58
1513911982.73,3439,7.38,73514.0,-11.73,-12.43,-12.47,0,*5D
1513911983.94,3440,7.38,73512.0,-11.75,-12.47,-12.47,0,*51
1513911985.17,3441,7.38,73512.0,-11.73,-12.43,-12.47,0,*52
1513911986.41,3442,7.44,73506.8,-11.73,-12.43,-12.43,0,*55
1513911987.64,3443,7.38,73506.0,-11.73,-12.43,-12.47,0,*50
1513911988.87,3444,7.38,73506.5,-11.73,-12.47,-12.47,0,*53
1513911990.1,3445,7.44,73514.3,-11.73,-12.43,-12.43,0,*52
1513911991.33,3446,7.38,73504.8,-11.73,-12.43,-12.47,0,*55
1513911992.56,3447,7.38,73504.3,-11.73,-12.43,-12.47,0,*54
1513911993.77,3448,7.38,73504.3,-11.75,-12.47,-12.47,0,*59
1513911994.99,3449,7.44,73510.0,-11.75,-12.47,-12.47,0,*58
1513911996.22,3450,7.38,73504.3,-11.73,-12.47,-12.47,0,*56
1513911997.48,3451,7.38,73512.5,-11.75,-12.57,-12.57,0,*51
1513911998.76,3452,7.44,73524.5,-11.73,-12.57,-12.57,0,*54
1513912000.05,3453,7.38,73528.8,-11.71,-12.57,-12.53,0,*53
1513912001.31,3454,7.38,73498.3,-11.73,-12.47,-12.57,0,*53
1513912002.55,3455,7.38,73500.0,-11.73,-12.29,-12.43,0,*5F
1513912003.81,3456,7.44,73494.3,-11.73,-12.29,-12.35,0,*5D
1513912005.1,3457,7.38,73506.3,-11.73,-12.35,-12.35,0,*51
1513912006.35,3458,7.44,73534.0,-11.71,-12.29,-12.29,0,*5C
1513912007.6,3459,7.38,73524.8,-11.71,-12.29,-12.29,0,*5D
1513912008.81,3460,7.38,73508.5,-11.69,-12.25,-12.25,0,*5E
1513912010.06,3461,7.38,73522.3,-11.71,-12.25,-12.25,0,*56
1513912011.27,3462,7.38,73518.0,-11.69,-12.29,-12.29,0,*5C
1513912012.52,3463,7.38,73516.3,-11.71,-12.29,-12.29,0,*54
1513912013.77,3464,7.38,73522.3,-11.71,-12.29,-12.29,0,*53
1513912015.01,3465,7.44,73518.3,-11.71,-12.39,-12.39,0,*52
1513912016.24,3466,7.44,73508.3,-11.73,-12.47,-12.43,0,*57
1513912017.48,3467,7.38,73498.5,-11.71,-12.43,-12.43,0,*50
1513912018.72,3468,7.44,73538.3,-11.71,-12.43,-12.39,0,*52
1513912019.96,3469,7.44,73542.0,-11.71,-12.39,-12.43,0,*53
1513912021.2,3470,7.44,73516.5,-11.71,-12.39,-12.39,0,*56
1513912022.44,3471,7.44,73536.3,-11.71,-12.39,-12.43,0,*5A
1513912023.68,3472,7.38,73524.5,-11.71,-12.39,-12.39,0,*54
1513912024.92,3473,7.38,73522.8,-11.71,-12.39,-12.29,0,*54
1513912026.16,3474,7.38,73526.3,-11.71,-12.39,-12.43,0,*5F
1513912027.4,3475,7.38,73524.0,-11.71,-12.43,-12.39,0,*5E
1513912028.61,3476,7.38,73524.0,-11.69,-12.39,-12.43,0,*54
1513912029.85,3477,7.38,73520.0,-11.71,-12.43,-12.43,0,*51
1513912031.09,3478,7.38,73528.3,-11.71,-12.39,-12.39,0,*5E
1513912032.3,3479,7.38,73536.8,-11.69,-12.43,-12.39,0,*5B
1513912033.54,3480,7.38,73532.5,-11.71,-12.43,-12.39,0,*54
1513912034.78,3481,7.38,73532.5,-11.71,-12.39,-12.39,0,*58
1513912036.02,3482,7.38,73530.0,-11.71,-12.39,-12.39,0,*5B
1513912037.26,3483,7.44,73538.3,-11.71,-12.43,-12.43,0,*5A
1513912038.5,3484,7.38,73534.5,-11.71,-12.39,-12.43,0,*50
1513912039.74,3485,7.38,73524.3,-11.71,-12.43,-12.43,0,*5C
1513912041.01,3486,7.38,73532.8,-11.71,-12.53,-12.43,0,*5E
1513912042.25,3487,7.38,73534.0,-11.69,-12.53,-12.43,0,*56
1513912043.52,3488,7.38,73528.8,-11.71,-12.53,-12.43,0,*50
1513912044.76,3489,7.44,73520.5,-11.71,-12.43,-12.43,0,*50
1513912045.97,3490,7.44,73534.8,-11.69,-12.43,-12.39,0,*5C
1513912047.26,3491,7.44,73542.5,-11.71,-12.53,-12.53,0,*59
1513912048.53,3492,7.38,73528.0,-11.69,-12.53,-12.53,0,*53
1513912049.82,3493,7.38,73524.8,-11.71,-12.53,-12.57,0,*5F
1513912051.12,3494,7.38,73522.5,-11.71,-12.53,-12.53,0,*5C
1513912052.42,3495,7.44,73530.0,-11.71,-12.53,-12.53,0,*5D
1513912053.68,3496,7.44,73522.0,-11.69,-12.53,-12.57,0,*53
1513912054.98,3497,7.38,73526.8,-11.71,-12.53,-12.57,0,*5B
1513912056.27,3498,7.38,73524.5,-11.71,-12.53,-12.57,0,*54
1513912057.56,3499,7.38,73526.0,-11.71,-12.57,-12.57,0,*51
1513912058.85,3500,7.44,73524.5,-11.71,-12.57,-12.57,0,*50
1513912060.14,3501,7.44,73516.5,-11.71,-12.53,-12.57,0,*55
1513912061.41,3502,7.38,73520.3,-11.69,-12.53,-12.53,0,*5B
1513912062.71,3503,7.44,73518.8,-11.71,-12.53,-12.53,0,*53
1513912064.0,3504,7.44,73520.0,-11.71,-12.53,-12.53,0,*54
1513912065.24,3505,7.38,73520.3,-11.71,-12.43,-12.39,0,*58
1513912066.48,3506,7.38,73518.5,-11.71,-12.43,-12.39,0,*5B
1513912067.72,3507,7.38,73518.8,-11.71,-12.43,-12.39,0,*5A
1513912068.97,3508,7.38,73518.5,-11.71,-12.25,-12.29,0,*54
1513912070.22,3509,7.38,73520.5,-11.71,-12.29,-12.29,0,*59
1513912071.46,3510,7.38,73518.3,-11.71,-12.29,-12.29,0,*51
1513912072.71,3511,7.38,73516.0,-11.71,-12.25,-12.29,0,*5C
1513912073.93,3512,7.38,73506.5,-11.69,-12.29,-12.29,0,*5A
1513912075.17,3513,7.38,73504.3,-11.71,-12.29,-12.25,0,*5E
1513912076.42,3514,7.44,73516.5,-11.71,-12.25,-12.25,0,*55
1513912077.64,3515,7.38,73514.8,-11.69,-12.29,-12.29,0,*5D
1513912078.85,3516,7.44,73520.0,-11.69,-12.29,-12.29,0,*5E
1513912080.09,3517,7.44,73518.5,-11.67,-12.21,-12.25,0,*55
1513912081.36,3518,7.38,73506.8,-11.69,-12.11,-12.11,0,*50
1513912082.62,3519,7.44,73506.3,-11.69,-11.97,-11.97,0,*51
1513912083.88,3520,7.38,73490.5,-11.69,-12.11,-12.11,0,*5B
1513912085.17,3521,7.38,73490.0,-11.67,-12.11,-12.11,0,*54
1513912086.46,3522,7.38,73516.5,-11.67,-12.11,-12.11,0,*57
1513912087.72,3523,7.38,73508.8,-11.67,-12.11,-12.21,0,*55
1513912088.99,3524,7.38,73518.8,-11.67,-12.11,-12.21,0,*52
1513912090.27,3525,7.44,73520.0,-11.67,-12.11,-12.11,0,*50
1513912091.56,3526,7.44,73524.8,-11.67,-12.11,-12.11,0,*53
1513912092.85,3527,7.38,73524.3,-11.67,-12.07,-12.11,0,*55
1513912094.14,3528,7.38,73508.5,-11.67,-12.11,-12.11,0,*5D
1513912095.42,3529,7.38,73510.8,-11.67,-12.11,-12.07,0,*5B
1513912096.71,3530,7.38,73506.8,-11.67,-12.07,-12.11,0,*53
1513912098.0,3531,7.44,73520.3,-11.67,-12.11,-12.11,0,*55
1513912099.26,3532,7.38,73522.0,-11.65,-12.11,-12.07,0,*53
1513912100.53,3533,7.38,73526.0,-11.65,-12.11,-12.07,0,*52
1513912101.77,3534,7.38,73512.5,-11.67,-12.21,-12.21,0,*50
1513912103.03,3535,7.38,73512.0,-11.65,-12.11,-12.11,0,*53
1513912104.32,3536,7.38,73522.5,-11.67,-12.11,-12.11,0,*52
1513912105.58,3537,7.44,73528.0,-11.65,-12.11,-12.11,0,*51